Location: Bazugues
(43.4465°N, 0.3432°E)
Time: 06:08:05
(UTC+00:00)

BREEZE-M DEB (TANK) - Pass Details

Date: 12 January 2026
Orbit: 273 x 16131 km, 49.5° (Epoch: 10 February)

Event Time Altitude Azimuth Distance (km) Brightness Sun altitude
Rises 18:20:20 0° 245° (WSW) 2,112 6.9 -17.0°
Reaches altitude 10° 18:21:37 10° 246° (WSW) 1,478 5.8 -17.2°
Maximum altitude 18:24:23 83° 334° (NNW) 670 2.7 -17.7°
Enters shadow 18:27:49 27° 61° (ENE) 1,997 4.6 -18.3°
